When you browse on this site, cookies collect data to enhance your experience and personalize the content and advertising you see.
Visit our Privacy Policy to learn more. By continuing to use the site, you agree to this use of cookies and data.
  • In Hungary
  • List of Countries
  • For 7 days
  • Water Temperature
  • Weather Map
  • News
  • Weather Widgets
  • user-avatar
    Login

    Hourly Weather Korçe

    Today, 30 May, Saturday

    Time Temperature Precipitation Wind Pressure Humidity
    00:00 +6°C° 0 mm 0 mps 665 mmHg 91%
    01:00 +6°C° 0 mm 1 mps 665 mmHg 92%
    02:00 +6°C° 0 mm 1 mps 665 mmHg 92%
    03:00 +6°C° 0 mm 1 mps 665 mmHg 92%
    04:00 +6°C° 0 mm 1 mps 665 mmHg 91%
    05:00 +8°C° 0 mm 1 mps 665 mmHg 87%
    06:00 +9°C° 0 mm 1 mps 666 mmHg 83%
    07:00 +11°C° 0 mm 1 mps 666 mmHg 78%
    08:00 +12°C° 0 mm 1 mps 667 mmHg 71%
    09:00 +14°C° 0 mm 1 mps 667 mmHg 63%
    10:00 +15°C° 0 mm 2 mps 667 mmHg 56%
    11:00 +15°C° 0.2 mm 2 mps 667 mmHg 55%
    12:00 +16°C° 0.2 mm 2 mps 667 mmHg 54%
    13:00 +16°C° 0.2 mm 3 mps 667 mmHg 53%
    14:00 +16°C° 0.5 mm 3 mps 667 mmHg 58%
    15:00 +14°C° 0.5 mm 3 mps 666 mmHg 63%
    16:00 +14°C° 0.5 mm 2 mps 666 mmHg 68%
    17:00 +13°C° 0.4 mm 2 mps 666 mmHg 75%
    18:00 +11°C° 0.4 mm 1 mps 665 mmHg 82%
    19:00 +9°C° 0.4 mm 1 mps 665 mmHg 89%
    20:00 +9°C° 0 mm 1 mps 665 mmHg 90%
    21:00 +8°C° 0 mm 1 mps 665 mmHg 91%
    22:00 +8°C° 0 mm 1 mps 665 mmHg 92%
    23:00 +7°C° 0 mm 1 mps 665 mmHg 92%

    Tomorrow, 31 May, Sunday

    Time Temperature Precipitation Wind Pressure Humidity
    00:00 +7°C° 0 mm 1 mps 664 mmHg 93%
    01:00 +7°C° 0 mm 1 mps 664 mmHg 93%
    02:00 +7°C° 0 mm 1 mps 664 mmHg 93%
    03:00 +7°C° 0 mm 1 mps 664 mmHg 93%
    04:00 +6°C° 0 mm 1 mps 664 mmHg 92%
    05:00 +8°C° 0 mm 1 mps 664 mmHg 88%
    06:00 +9°C° 0 mm 1 mps 664 mmHg 83%
    07:00 +11°C° 0 mm 1 mps 665 mmHg 79%
    08:00 +12°C° 0.4 mm 1 mps 665 mmHg 74%
    09:00 +13°C° 0.4 mm 2 mps 666 mmHg 69%
    10:00 +15°C° 0.4 mm 2 mps 666 mmHg 64%
    11:00 +15°C° 1 mm 2 mps 666 mmHg 65%
    12:00 +15°C° 1 mm 2 mps 665 mmHg 67%
    13:00 +14°C° 1 mm 3 mps 665 mmHg 69%
    14:00 +15°C° 1 mm 2 mps 665 mmHg 71%
    15:00 +14°C° 1 mm 2 mps 665 mmHg 73%
    16:00 +14°C° 1 mm 2 mps 664 mmHg 76%
    17:00 +12°C° 0.4 mm 2 mps 664 mmHg 81%
    18:00 +11°C° 0.4 mm 1 mps 663 mmHg 86%
    19:00 +10°C° 0.4 mm 1 mps 663 mmHg 91%
    20:00 +9°C° 0 mm 1 mps 663 mmHg 92%
    21:00 +8°C° 0 mm 1 mps 663 mmHg 92%
    22:00 +8°C° 0 mm 1 mps 663 mmHg 93%
    23:00 +7°C° 0 mm 1 mps 663 mmHg 93%

    Day after tomorrow, 1 June, Monday

    Time Temperature Precipitation Wind Pressure Humidity
    00:00 +6°C° 0 mm 0 mps 663 mmHg 94%
    01:00 +6°C° 0 mm 0 mps 663 mmHg 94%
    02:00 +6°C° 0 mm 0 mps 662 mmHg 94%
    03:00 +6°C° 0 mm 0 mps 662 mmHg 94%
    04:00 +6°C° 0 mm 0 mps 662 mmHg 94%
    05:00 +8°C° 0 mm 1 mps 663 mmHg 90%
    06:00 +10°C° 0 mm 1 mps 663 mmHg 86%
    07:00 +11°C° 0 mm 1 mps 663 mmHg 82%
    08:00 +12°C° 0.1 mm 2 mps 664 mmHg 76%
    09:00 +13°C° 0.1 mm 2 mps 664 mmHg 70%
    10:00 +13°C° 0.1 mm 3 mps 664 mmHg 64%
    11:00 +14°C° 0.3 mm 3 mps 664 mmHg 64%
    12:00 +14°C° 0.3 mm 3 mps 664 mmHg 64%
    13:00 +14°C° 0.3 mm 3 mps 664 mmHg 64%
    14:00 +14°C° 0.3 mm 3 mps 663 mmHg 67%
    15:00 +13°C° 0.3 mm 3 mps 663 mmHg 70%
    16:00 +13°C° 0.3 mm 3 mps 663 mmHg 73%
    17:00 +12°C° 0.1 mm 3 mps 663 mmHg 79%
    18:00 +10°C° 0.1 mm 2 mps 662 mmHg 85%
    19:00 +9°C° 0.1 mm 2 mps 662 mmHg 91%
    20:00 +8°C° 0 mm 2 mps 662 mmHg 92%
    21:00 +8°C° 0 mm 1 mps 662 mmHg 93%
    22:00 +8°C° 0 mm 1 mps 662 mmHg 95%
    23:00 +8°C° 0 mm 1 mps 662 mmHg 94%

    2 June, Tuesday

    Time Temperature Precipitation Wind Pressure Humidity
    00:00 +7°C° 0 mm 1 mps 661 mmHg 93%
    01:00 +7°C° 0 mm 1 mps 661 mmHg 93%
    02:00 +7°C° 0 mm 1 mps 661 mmHg 92%
    03:00 +7°C° 0 mm 1 mps 661 mmHg 91%
    04:00 +7°C° 0 mm 1 mps 661 mmHg 91%
    05:00 +9°C° 0 mm 1 mps 661 mmHg 84%
    06:00 +11°C° 0 mm 1 mps 662 mmHg 78%
    07:00 +13°C° 0 mm 1 mps 663 mmHg 72%
    08:00 +14°C° 0.1 mm 1 mps 663 mmHg 67%
    09:00 +15°C° 0.1 mm 2 mps 663 mmHg 61%
    10:00 +16°C° 0.1 mm 2 mps 664 mmHg 56%
    11:00 +16°C° 0.2 mm 3 mps 664 mmHg 56%
    12:00 +17°C° 0.2 mm 3 mps 663 mmHg 57%
    13:00 +17°C° 0.2 mm 3 mps 663 mmHg 57%
    14:00 +16°C° 0.4 mm 3 mps 663 mmHg 60%
    15:00 +14°C° 0.4 mm 3 mps 663 mmHg 64%
    16:00 +14°C° 0.4 mm 3 mps 662 mmHg 67%
    17:00 +12°C° 0.2 mm 3 mps 662 mmHg 74%
    18:00 +12°C° 0.2 mm 2 mps 662 mmHg 80%
    19:00 +9°C° 0.2 mm 2 mps 661 mmHg 87%
    20:00 +8°C° 0 mm 2 mps 661 mmHg 88%
    21:00 +8°C° 0 mm 1 mps 661 mmHg 89%
    22:00 +8°C° 0 mm 1 mps 661 mmHg 91%
    23:00 +8°C° 0 mm 1 mps 661 mmHg 90%

    3 June, Wednesday

    Time Temperature Precipitation Wind Pressure Humidity
    00:00 +7°C° 0 mm 1 mps 661 mmHg 90%
    01:00 +6°C° 0 mm 0 mps 661 mmHg 89%
    02:00 +6°C° 0 mm 0 mps 661 mmHg 89%
    03:00 +6°C° 0 mm 0 mps 661 mmHg 89%
    04:00 +5°C° 0 mm 0 mps 660 mmHg 89%
    05:00 +7°C° 0 mm 0 mps 661 mmHg 84%
    06:00 +10°C° 0 mm 1 mps 662 mmHg 78%
    07:00 +12°C° 0 mm 1 mps 662 mmHg 73%
    08:00 +13°C° 0 mm 1 mps 663 mmHg 66%
    09:00 +14°C° 0 mm 2 mps 663 mmHg 60%
    10:00 +16°C° 0 mm 2 mps 664 mmHg 54%
    11:00 +16°C° 0 mm 3 mps 664 mmHg 54%
    12:00 +17°C° 0 mm 3 mps 664 mmHg 54%
    13:00 +17°C° 0 mm 3 mps 664 mmHg 54%
    14:00 +17°C° 0 mm 3 mps 664 mmHg 54%
    15:00 +17°C° 0 mm 3 mps 664 mmHg 55%
    16:00 +17°C° 0 mm 3 mps 663 mmHg 56%
    17:00 +15°C° 0 mm 2 mps 663 mmHg 63%
    18:00 +13°C° 0 mm 2 mps 663 mmHg 69%
    19:00 +11°C° 0 mm 1 mps 662 mmHg 76%
    20:00 +10°C° 0 mm 1 mps 662 mmHg 78%
    21:00 +10°C° 0 mm 1 mps 663 mmHg 80%
    22:00 +9°C° 0 mm 1 mps 663 mmHg 82%
    23:00 +9°C° 0 mm 1 mps 663 mmHg 81%

    4 June, Thursday

    Time Temperature Precipitation Wind Pressure Humidity
    00:00 +9°C° 0 mm 1 mps 662 mmHg 80%
    01:00 +10°C° 0 mm 1 mps 662 mmHg 79%
    02:00 +10°C° 0.1 mm 1 mps 662 mmHg 82%
    03:00 +8°C° 0.1 mm 2 mps 662 mmHg 85%
    04:00 +8°C° 0.1 mm 2 mps 662 mmHg 89%
    05:00 +9°C° 0.2 mm 2 mps 662 mmHg 89%
    06:00 +9°C° 0.2 mm 2 mps 662 mmHg 90%
    07:00 +9°C° 0.2 mm 2 mps 663 mmHg 91%
    08:00 +10°C° 0.1 mm 2 mps 663 mmHg 88%
    09:00 +12°C° 0.1 mm 2 mps 664 mmHg 85%
    10:00 +13°C° 0.1 mm 2 mps 664 mmHg 83%
    11:00 +13°C° 0.1 mm 2 mps 664 mmHg 82%
    12:00 +14°C° 0.1 mm 2 mps 664 mmHg 82%
    13:00 +14°C° 0.1 mm 2 mps 665 mmHg 81%
    14:00 +14°C° 0.3 mm 2 mps 665 mmHg 81%
    15:00 +15°C° 0.3 mm 2 mps 665 mmHg 80%
    16:00 +15°C° 0.3 mm 2 mps 665 mmHg 79%
    17:00 +14°C° 0.3 mm 2 mps 665 mmHg 84%
    18:00 +13°C° 0.3 mm 2 mps 664 mmHg 89%
    19:00 +12°C° 0.3 mm 1 mps 664 mmHg 94%
    20:00 +11°C° 0 mm 1 mps 664 mmHg 95%
    21:00 +11°C° 0 mm 1 mps 664 mmHg 95%
    22:00 +10°C° 0 mm 1 mps 664 mmHg 96%
    23:00 +11°C° 0 mm 1 mps 664 mmHg 96%
    Show more